DW9614 Weather Reports


Display with metric or nautical units.
time (UTC)temp
F
wind
direction
speed
MPH
gust
MPH
rain 1hr
in
rain 24hr
in
rain mn
in
humidity
%
barometer
mb
20260904214545 98 227 3.0 11.0 0.00 0.00 0.00 49 1010.6
20260904213043 97 222 3.0 10.0 0.00 0.00 0.00 50 1010.8
20260904211542 98 161 6.0 10.0 0.00 0.00 0.00 49 1011.0
20260904210049 97 234 4.0 10.0 0.00 0.00 0.00 47 1011.1
20260904204538 98 199 4.0 11.0 0.00 0.00 0.00 48 1011.3
20260904203038 99 198 3.0 9.0 0.00 0.00 0.00 48 1011.4
20260904201534 98 210 2.0 10.0 0.00 0.00 0.00 47 1011.7
20260904200033 98 211 4.0 10.0 0.00 0.00 0.00 47 1011.7
20260904193031 98 210 6.0 10.0 0.00 0.00 0.00 48 1012.0
20260904191530 97 201 4.0 9.0 0.00 0.00 0.00 51 1012.2
20260904190034 98 231 5.0 11.0 0.00 0.00 0.00 50 1012.4
20260904184528 97 225 4.0 9.0 0.00 0.00 0.00 53 1012.5
20260904183027 96 226 6.0 9.0 0.00 0.00 0.00 54 1012.7
20260904181532 96 240 4.0 8.0 0.00 0.00 0.00 54 1012.9
20260904180026 96 226 4.0 8.0 0.00 0.00 0.00 55 1013.1
20260904174526 97 210 5.0 8.0 0.00 0.00 0.00 53 1013.3
20260904173043 97 226 2.0 7.0 0.00 0.00 0.00 52 1013.4
20260904171525 97 210 4.0 8.0 0.00 0.00 0.00 49 1013.5
20260904170023 96 287 3.0 10.0 0.00 0.00 0.00 51 1013.6
20260904164521 96 200 4.0 9.0 0.00 0.00 0.00 51 1013.6
20260904163021 95 223 2.0 7.0 0.00 0.00 0.00 53 1013.7
20260904161519 95 302 2.0 6.0 0.00 0.00 0.00 53 1013.7
20260904160017 93 207 4.0 9.0 0.00 0.00 0.00 55 1013.6
20260904154515 94 285 3.0 11.0 0.00 0.00 0.00 55 1013.6
20260904153013 91 188 3.0 12.0 0.00 0.00 0.00 58 1013.6
20260904151511 92 204 3.0 7.0 0.00 0.00 0.00 60 1013.5
20260904150011 89 267 3.0 9.0 0.00 0.00 0.00 62 1013.5
20260904144506 88 289 1.0 8.0 0.00 0.00 0.00 65 1013.3
20260904143004 87 235 2.0 6.0 0.00 0.00 0.00 66 1013.3
20260904141502 86 200 4.0 12.0 0.00 0.00 0.00 67 1013.1
20260904140059 85 259 2.0 7.0 0.00 0.00 0.00 70 1013.3
20260904134603 83 217 4.0 10.0 0.00 0.00 0.00 73 1013.3
20260904131555 83 207 2.0 7.0 0.00 0.00 0.00 73 1013.3
20260904130051 82 212 3.0 8.0 0.00 0.00 0.00 74 1013.1
20260904124557 81 213 3.0 7.0 0.00 0.00 0.00 76 1013.0
20260904123046 80 234 3.0 6.0 0.00 0.00 0.00 77 1012.7
20260904121546 80 215 2.0 5.0 0.00 0.00 0.00 77 1012.5
20260904120045 79 209 4.0 7.0 0.00 0.00 0.00 77 1012.4
20260904114545 79 211 3.0 6.0 0.00 0.00 0.00 78 1012.2
20260904113045 79 214 3.0 7.0 0.00 0.00 0.00 78 1012.3
20260904111543 79 217 4.0 8.0 0.00 0.00 0.00 78 1012.3
20260904110043 80 215 4.0 6.0 0.00 0.00 0.00 76 1012.4
20260904104543 80 221 3.0 6.0 0.00 0.00 0.00 76 1012.5
20260904103042 80 226 1.0 5.0 0.00 0.00 0.00 76 1012.5
20260904101541 81 228 3.0 5.0 0.00 0.00 0.00 75 1012.6
20260904100041 81 232 3.0 6.0 0.00 0.00 0.00 74 1012.4
20260904094542 81 230 2.0 4.0 0.00 0.00 0.00 73 1012.5
20260904093040 81 231 2.0 5.0 0.00 0.00 0.00 73 1012.4
20260904091550 81 215 2.0 6.0 0.00 0.00 0.00 74 1012.3
20260904090040 82 215 3.0 7.0 0.00 0.00 0.00 73 1012.0
20260904084538 82 212 4.0 7.0 0.00 0.00 0.00 73 1012.0
20260904083037 81 214 3.0 6.0 0.00 0.00 0.00 74 1011.9
20260904081537 81 213 4.0 7.0 0.00 0.00 0.00 75 1011.9
20260904080035 81 216 3.0 6.0 0.00 0.00 0.00 75 1012.1
20260904074549 81 208 2.0 5.0 0.00 0.00 0.00 75 1012.1
20260904073034 81 186 1.0 4.0 0.00 0.00 0.00 76 1012.2
20260904071536 81 184 1.0 4.0 0.00 0.00 0.00 76 1012.3
20260904070029 81 184 1.0 4.0 0.00 0.00 0.00 77 1012.5
20260904064533 81 183 1.0 3.0 0.00 0.00 0.00 77 1012.4
20260904063038 80 182 0.0 4.0 0.00 0.00 0.00 78 1012.6
20260904060028 79 177 0.0 0.0 0.00 0.00 0.00 81 1012.6
20260904054532 80 177 0.0 0.0 0.00 0.00 0.00 80 1012.7
20260904053023 80 177 0.0 1.0 0.00 0.00 0.00 79 1012.6
20260904051520 81 196 0.0 3.0 0.00 0.00 0.00 77 1012.6
20260904050018 81 196 1.0 3.0 0.00 0.00 0.00 77 1012.5
20260904044518 80 196 0.0 2.0 0.00 0.00 0.00 81 1012.6
20260904043017 80 196 0.0 0.0 0.00 0.00 0.00 80 1012.6
20260904041524 81 196 0.0 0.0 0.00 0.00 0.00 80 1012.5
20260904040016 81 196 0.0 2.0 0.00 0.00 0.00 79 1012.3
20260904034515 82 196 0.0 1.0 0.00 0.00 0.00 79 1012.3
20260904033015 82 196 0.0 0.0 0.00 0.00 0.00 77 1012.3
20260904031514 83 196 0.0 3.0 0.00 0.00 0.00 76 1012.2
20260904030014 83 196 0.0 1.0 0.00 0.00 0.00 76 1012.3
20260904024518 83 196 0.0 1.0 0.00 0.00 0.00 76 1012.2
20260904023015 83 196 0.0 1.0 0.00 0.00 0.00 77 1012.2
20260904021529 84 196 0.0 1.0 0.00 0.00 0.00 77 1011.9
20260904020012 84 196 0.0 0.0 0.00 0.00 0.00 75 1012.0
20260904014511 84 196 0.0 0.0 0.00 0.00 0.00 75 1011.6
20260904013011 85 196 0.0 0.0 0.00 0.00 0.00 74 1011.5
20260904011511 86 196 0.0 0.0 0.00 0.00 0.00 74 1011.4
20260904010013 87 196 0.0 0.0 0.00 0.00 0.00 72 1011.2
20260904004510 88 196 0.0 0.0 0.00 0.00 0.00 71 1011.2
20260904003010 88 196 0.0 0.0 0.00 0.00 0.00 70 1011.2
20260904001509 90 196 0.0 0.0 0.00 0.00 0.00 66 1011.3
20260904000008 91 196 0.0 0.0 0.00 0.00 0.00 62 1011.2
20260903234511 93 196 0.0 3.0 0.00 0.00 0.00 58 1011.3
20260903233007 93 196 1.0 5.0 0.00 0.00 0.00 57 1011.2
20260903231508 95 217 1.0 5.0 0.00 0.00 0.00 53 1011.2
20260903224506 96 219 2.0 7.0 0.00 0.00 0.00 52 1011.2
20260903223005 95 200 6.0 9.0 0.00 0.00 0.00 52 1011.1
20260903221509 96 194 4.0 7.0 0.00 0.00 0.00 52 1011.2